Location: North Evanston
(42.0634°N, 87.6976°W)
Time: 21:39:17
(UTC+00:00)

Transit 2A - Pass Details

Date: 12 May 2026
Orbit: 595 x 948 km, 66.7° (Epoch: 9 June)

Event Time Altitude Azimuth Distance (km) Brightness Sun altitude
Rises 20:24:59 0° 159° (SSE) 3,598 9.5 49.0°
Reaches altitude 10° 20:28:40 10° 138° (SE) 2,639 8.7 48.4°
Maximum altitude 20:32:04 15° 104° (ESE) 2,242 8.2 47.8°
Drops below altitude 10° 20:35:24 10° 70° (ENE) 2,570 8.4 47.2°
Sets 20:38:53 0° 49° (NE) 3,454 9.0 46.6°
